User: anonymous   Login
Location: Oshawa
(43.9000°N, 78.8670°W)
Time: 04:35:38
(UTC-05:00)
Language:

Cosmos 2333 Rocket - Orbit

View from above orbital plane
View from above orbital plane
View from above satellite
View from above satellite

Ground track
Ground track

The orbit data is extracted from the following two-line orbital elements,

1 24298U 96051B   16343.36824736  .00000133  00000-0  98372-4 0  9992
2 24298  70.8452 104.2382 0013450 115.6962 244.5548 14.12461084 44872
Epoch (UTC): 08 December 2016 08:50:16
Eccentricity: 0.0013450
inclination: 70.8452°
perigee height: 841 km
apogee height: 860 km
right ascension of ascending node: 104.2382°
argument of perigee: 115.6962°
revolutions per day: 14.12461084
mean anomaly at epoch: 244.5548°
orbit number at epoch: 4487

The dashed part of the orbit path shows where the satellite is in the earth's shadow,  

DLR